Location: M.A.R.S.Observatory
(35.4031°N, 81.5481°W)
Time: 22:23:21
(UTC-05:00)

X-37B - Visible Passes

Search period start: 05 December 2021 00:00
Search period end: 15 December 2021 00:00
Orbit: 330 x 341 km, 45.0° (Epoch: 20 November)

Date Brightness Start Highest point End Pass type
(mag) Time Alt. Az. Time Alt. Az. Time Alt. Az.
05 Dec 2.2 17:38:51 10° S 17:41:00 20° SE 17:43:11 10° E visible
05 Dec 2.9 19:13:37 10° W 19:14:56 22° W 19:14:56 22° W visible
06 Dec 0.4 17:58:29 10° SW 18:01:18 65° SE 18:03:24 16° ENE visible
07 Dec 1.2 18:19:03 10° W 18:21:47 40° NNW 18:23:02 24° NNE visible
08 Dec 2.3 18:40:11 10° WNW 18:42:25 20° NNW 18:42:38 20° N visible
09 Dec 3.2 19:01:37 10° NW 19:02:11 12° NNW 19:02:11 12° NNW visible
10 Dec 2.3 17:45:36 10° WNW 17:47:50 20° NNW 17:50:06 10° NNE visible
11 Dec 2.7 18:07:02 10° NW 18:08:37 14° N 18:10:02 11° NNE visible
12 Dec 2.8 18:28:15 10° NNW 18:29:29 12° N 18:29:35 12° N visible
13 Dec 3.1 18:48:45 10° NNW 18:49:10 12° NNW 18:49:10 12° NNW visible
